Lincoln, IL

6:11 AM CDT on October 21, 2019 (GMT -0500)
Lincoln

Weather History for KAAA - August, 2019

Change the Weather History Date:

Monday, August 12, 2019

  Actual Average (KSPI) Record (KSPI)
Temperature  
Mean Temperature 80 °F 75 °F  
Max Temperature 87 °F 85 °F 102 °F (1918)
Min Temperature 72 °F 64 °F 45 °F (2004)
Degree Days  
Heating Degree Days 0 0  
Month to date heating degree days 0  
Since 1 June heating degree days 16  
Since 1 July heating degree days 1  
Cooling Degree Days 14 10  
Month to date cooling degree days 120  
Year to date cooling degree days 799  
Since 1 June cooling degree days 695  
Growing Degree Days 30 (Base 50)    
Moisture  
Dew Point 75 °F    
Average Humidity 91    
Maximum Humidity 100    
Minimum Humidity 73    
Precipitation  
Precipitation 0.00 in 0.10 in 5.59 in (2016)
Month to date precipitation 1.31  
Year to date precipitation 23.72  
Snow  
Snow 0.00 in 0.00 in 0.00 in ()
Month to date snowfall 0.0  
Since 1 June snowfall 0.0  
Since 1 July snowfall 0.0  
Snow Depth -    
Sea Level Pressure  
Sea Level Pressure 29.86 in    
Wind  
Wind Speed 3 mph (South)    
Max Wind Speed 13 mph    
Max Gust Speed 18 mph    
Visibility 10 miles    
Events Rain , Thunderstorm    
T = Trace of Precipitation, MM = Missing Value Source: NWS Daily Summary

Daily Weather History Graph

Daily Weather History Graph

Search for Another Location

Airport or City:

Astronomy

Aug. 12, 2019 Rise Set
Actual Time 6:05 AM CDT 7:58 PM CDT
Civil Twilight 5:36 AM CDT 8:27 PM CDT
Nautical Twilight 5:00 AM CDT 9:03 PM CDT
Astronomical Twilight 4:21 AM CDT 9:41 PM CDT
Moon 6:28 PM CDT (8/12) 3:14 AM CDT (8/12)
Length of Visible Light 14h 51m
Length of Day
13h 52m
Waxing Gibbous, 93% of the Moon is Illuminated
Aug 12
Waxing Gibbous
Aug 15
Full
Aug 23
Last Quarter
Aug 30
New
Sep 5
First Quarter

Hourly Weather History & Observations

Time (CDT) Temp. Heat Index Dew Point Humidity Pressure Visibility Wind Dir Wind Speed Gust Speed Precip Events Conditions
12:15 AM 73.4 °F - 71.8 °F 95% 29.95 in 10.0 mi South 3.5 mph - N/A   Clear
12:35 AM 73.4 °F - 71.6 °F 94% 29.95 in 10.0 mi Calm Calm - N/A   Clear
12:55 AM 72.9 °F - 71.6 °F 96% 29.94 in 10.0 mi Calm Calm - N/A   Clear
1:15 AM 72.7 °F - 71.4 °F 96% 29.94 in 10.0 mi Calm Calm - N/A   Clear
1:35 AM 73.2 °F - 71.2 °F 93% 29.94 in 10.0 mi South 3.5 mph - N/A   Mostly Cloudy
1:55 AM 73.0 °F - 71.6 °F 95% 29.94 in 10.0 mi South 3.5 mph - N/A   Mostly Cloudy
2:15 AM 73.2 °F - 71.8 °F 95% 29.94 in 10.0 mi Calm Calm - N/A   Mostly Cloudy
2:35 AM 73.4 °F - 72.0 °F 95% 29.93 in 10.0 mi SSW 3.5 mph - N/A   Overcast
2:55 AM 73.4 °F - 72.5 °F 97% 29.93 in 10.0 mi SW 3.5 mph - N/A   Overcast
3:15 AM 73.6 °F - 72.7 °F 97% 29.93 in 10.0 mi SSW 3.5 mph - N/A   Overcast
3:35 AM 73.4 °F - 72.7 °F 98% 29.91 in 10.0 mi Calm Calm - N/A   Overcast
3:55 AM 73.4 °F - 72.5 °F 97% 29.91 in 10.0 mi Calm Calm - N/A   Overcast
4:15 AM 72.9 °F - 72.5 °F 99% 29.90 in 10.0 mi ESE 4.6 mph - N/A   Overcast
4:35 AM 72.5 °F - 72.5 °F 100% 29.90 in 10.0 mi Calm Calm - N/A   Overcast
4:55 AM 72.9 °F - 72.7 °F 99% 29.89 in 10.0 mi Calm Calm - N/A   Overcast
5:15 AM 72.5 °F - 72.1 °F 99% 29.90 in 7.0 mi Calm Calm - N/A   Overcast
5:35 AM 72.5 °F - 72.5 °F 100% 29.89 in 7.0 mi Calm Calm - N/A   Overcast
5:55 AM 72.5 °F - 72.1 °F 99% 29.90 in 7.0 mi Calm Calm - N/A   Overcast
6:15 AM 72.7 °F - 72.5 °F 99% 29.91 in 10.0 mi Calm Calm - N/A   Overcast
6:35 AM 72.7 °F - 72.5 °F 99% 29.92 in 7.0 mi Calm Calm - N/A   Overcast
6:55 AM 72.9 °F - 72.7 °F 99% 29.92 in 7.0 mi SSE 3.5 mph - N/A   Overcast
7:15 AM 73.2 °F - 73.0 °F 99% 29.93 in 7.0 mi Calm Calm - N/A   Overcast
7:35 AM 73.6 °F - 73.4 °F 99% 29.92 in 7.0 mi Calm Calm - N/A   Overcast
7:55 AM 73.9 °F - 73.6 °F 99% 29.92 in 7.0 mi Calm Calm - N/A   Mostly Cloudy
8:15 AM 74.3 °F - 73.8 °F 98% 29.92 in 10.0 mi Calm Calm - N/A   Mostly Cloudy
8:30 AM 74.8 °F - 73.8 °F 96% 29.93 in 10.0 mi Calm Calm - N/A   Overcast
8:55 AM 76.3 °F - 74.3 °F 94% 29.94 in 10.0 mi South 4.6 mph - N/A   Overcast
9:15 AM 76.5 °F - 73.9 °F 92% 29.94 in 10.0 mi South 3.5 mph - N/A   Overcast
9:35 AM 76.3 °F - 73.8 °F 92% 29.95 in 10.0 mi South 3.5 mph - N/A   Overcast
9:55 AM 76.5 °F - 74.5 °F 94% 29.96 in 7.0 mi Calm Calm - N/A Rain Light Rain
10:15 AM 76.3 °F - 74.5 °F 94% 29.96 in 10.0 mi Calm Calm - N/A   Overcast
10:35 AM 76.3 °F - 74.5 °F 94% 29.97 in 10.0 mi West 4.6 mph - N/A   Overcast
10:55 AM 76.1 °F - 74.3 °F 94% 29.93 in 4.0 mi Calm Calm - N/A Rain Rain
11:15 AM 75.6 °F - 74.8 °F 98% 29.82 in 5.0 mi ESE 4.6 mph 18.4 mph N/A Rain Light Rain
11:35 AM 77.0 °F - 75.0 °F 94% 29.86 in 10.0 mi South 4.6 mph - N/A   Mostly Cloudy
11:55 AM 77.9 °F - 75.0 °F 91% 29.85 in 10.0 mi SSE 10.4 mph - N/A   Mostly Cloudy
12:35 PM 81.0 °F 86.7 °F 74.8 °F 82% 29.84 in 10.0 mi South 10.4 mph - N/A   Mostly Cloudy
12:55 PM 82.0 °F 88.6 °F 75.0 °F 79% 29.83 in 10.0 mi South 12.7 mph 16.1 mph N/A   Mostly Cloudy
1:15 PM 81.9 °F 88.5 °F 75.2 °F 80% 29.83 in 10.0 mi South 11.5 mph - N/A   Mostly Cloudy
1:35 PM 83.7 °F 91.7 °F 75.4 °F 76% 29.83 in 10.0 mi South 9.2 mph - N/A   Mostly Cloudy
1:55 PM 84.2 °F 93.0 °F 75.9 °F 76% 29.84 in 10.0 mi South 8.1 mph - N/A   Mostly Cloudy
2:15 PM 83.5 °F 92.2 °F 76.3 °F 79% 29.83 in 10.0 mi South 4.6 mph - N/A   Mostly Cloudy
2:35 PM 84.4 °F 94.2 °F 76.8 °F 78% 29.83 in 10.0 mi South 4.6 mph - N/A   Mostly Cloudy
2:55 PM 84.7 °F 94.0 °F 76.1 °F 75% 29.82 in 10.0 mi South 4.6 mph - N/A   Mostly Cloudy
3:35 PM 85.3 °F 96.3 °F 77.2 °F 77% 29.81 in 10.0 mi SSE 5.8 mph - N/A   Overcast
3:55 PM 86.0 °F 97.3 °F 77.4 °F 75% 29.80 in 10.0 mi South 6.9 mph - N/A   Overcast
4:15 PM 86.2 °F 98.3 °F 77.7 °F 76% 29.80 in 10.0 mi South 5.8 mph - N/A   Overcast
4:35 PM 87.1 °F 99.3 °F 77.5 °F 73% 29.80 in 10.0 mi South 8.1 mph - N/A   Overcast
4:55 PM 86.4 °F 98.8 °F 78.1 °F 76% 29.79 in 10.0 mi South 5.8 mph - N/A   Overcast
5:15 PM 86.0 °F 98.3 °F 78.1 °F 77% 29.79 in 10.0 mi South 6.9 mph - N/A   Mostly Cloudy
5:35 PM 85.3 °F 97.2 °F 78.3 °F 79% 29.80 in 10.0 mi South 6.9 mph - N/A   Mostly Cloudy
5:55 PM 84.7 °F 95.6 °F 77.7 °F 79% 29.80 in 10.0 mi South 3.5 mph - N/A   Mostly Cloudy
6:15 PM 84.0 °F 94.8 °F 78.1 °F 82% 29.80 in 10.0 mi Calm Calm - N/A   Overcast
6:35 PM 83.5 °F 94.0 °F 78.3 °F 84% 29.79 in 10.0 mi South 3.5 mph - N/A   Overcast
6:55 PM 83.3 °F 93.8 °F 78.4 °F 85% 29.79 in 10.0 mi Calm Calm - N/A   Overcast
7:15 PM 83.5 °F 94.0 °F 78.3 °F 84% 29.79 in 10.0 mi Calm Calm - N/A   Overcast
7:35 PM 84.0 °F 95.6 °F 78.6 °F 84% 29.79 in 10.0 mi Calm Calm - N/A   Mostly Cloudy
7:55 PM 82.0 °F 91.3 °F 78.4 °F 89% 29.78 in 10.0 mi Calm Calm - N/A   Scattered Clouds
8:15 PM 80.8 °F 88.2 °F 78.3 °F 92% 29.78 in 10.0 mi Calm Calm - N/A   Scattered Clouds
8:35 PM 79.9 °F - 77.9 °F 94% 29.77 in 10.0 mi Calm Calm - N/A Thunderstorm Scattered Clouds
8:55 PM 79.5 °F - 77.9 °F 95% 29.77 in 10.0 mi SE 3.5 mph - N/A Rain , Thunderstorm Light Thunderstorms and Rain
9:15 PM 80.1 °F 86.4 °F 78.1 °F 94% 29.77 in 10.0 mi South 5.8 mph - N/A Rain Light Rain
9:35 PM 78.6 °F - 77.2 °F 95% 29.77 in 10.0 mi South 4.6 mph - N/A Rain , Thunderstorm Light Thunderstorms and Rain
9:55 PM 78.3 °F - 77.0 °F 96% 29.77 in 10.0 mi SW 3.5 mph - N/A Rain , Thunderstorm Light Thunderstorms and Rain
10:15 PM 78.1 °F - 75.9 °F 93% 29.77 in 10.0 mi Calm Calm - N/A   Mostly Cloudy
10:35 PM 76.8 °F - 75.2 °F 95% 29.76 in 10.0 mi SE 4.6 mph - N/A Thunderstorm Scattered Clouds
10:55 PM 75.7 °F - 75.2 °F 98% 29.74 in 10.0 mi Calm Calm - N/A   Clear
11:15 PM 74.7 °F - 73.8 °F 97% 29.77 in 10.0 mi South 5.8 mph - N/A   Clear
11:35 PM 74.3 °F - 72.9 °F 95% 29.78 in 10.0 mi South 5.8 mph - N/A   Mostly Cloudy
11:55 PM 74.3 °F - 72.9 °F 95% 29.78 in 10.0 mi South 5.8 mph - N/A   Scattered Clouds